Tracking 27380 objects as of 6-Jun-2023
HD Live streaming from Space Station
objects crossing your sky now

BREEZE-M DEB

Track BREEZE-M DEB now!
10-day predictions


NORAD ID: 39599
Int'l Code: 2008-011DK
Perigee: 875.6 km
Apogee: 25,716.1 km
Inclination: 49.9 °
Period: 457.5 minutes
Semi major axis: 19666 km
RCS: Unknown
Launch date: March 14, 2008
Source: Commonwealth of Independent States (former USSR) (CIS)
Launch site: TYURATAM MISSILE AND SPACE COMPLEX (TTMTR)

Note: This is SATELLITE DEBRIS
Your satellite tracking list
Your tracking list is empty




NASA's NSSDC Master Catalog

Two Line Element Set (TLE):
1 39599U 08011DK  23144.90380678  .00000466  00000-0  21460-1 0  9990
2 39599  49.8794  23.8524 6315316 216.4596  76.7053  3.14774748109339
Source of the keplerian elements: AFSPC